EW4939 Weather Reports


Display with metric or nautical units.
time (UTC)temp
F
wind
direction
speed
MPH
gust
MPH
rain 1hr
in
rain 24hr
in
rain mn
in
humidity
%
barometer
mb
20200331000910 51 270 2.0 6.0 0.00 0.00 0.00 51 1021.5
20200331000409 51 270 2.0 6.0 0.00 0.00 0.00 51 1021.5
20200330235910 51 270 4.0 9.0 0.00 0.00 0.00 51 1021.5
20200330235409 52 270 3.0 9.0 0.00 0.00 0.00 50 1021.5
20200330234909 52 270 3.0 6.0 0.00 0.00 0.00 49 1021.5
20200330234409 52 270 3.0 7.0 0.00 0.00 0.00 48 1021.5
20200330233910 53 270 5.0 7.0 0.00 0.00 0.00 48 1021.5
20200330233409 53 270 4.0 7.0 0.00 0.00 0.00 47 1021.5
20200330232909 54 270 5.0 8.0 0.00 0.00 0.00 46 1021.5
20200330232410 55 270 5.0 8.0 0.00 0.00 0.00 45 1020.5
20200330231909 55 270 4.0 8.0 0.00 0.00 0.00 44 1020.5
20200330231410 56 270 5.0 8.0 0.00 0.00 0.00 43 1020.5
20200330230913 56 270 3.0 8.0 0.00 0.00 0.00 43 1021.5
20200330230407 56 270 4.0 8.0 0.00 0.00 0.00 43 1021.5
20200330225852 56 270 5.0 9.0 0.00 0.00 0.00 42 1021.5
20200330225404 56 270 4.0 9.0 0.00 0.00 0.00 42 1021.5
20200330224853 57 270 3.0 7.0 0.00 0.00 0.00 42 1021.5
20200330224320 56 270 3.0 9.0 0.00 0.00 0.00 42 1021.5
20200330223820 57 270 6.0 10.0 0.00 0.00 0.00 41 1021.5
20200330223309 57 270 5.0 10.0 0.00 0.00 0.00 41 1021.5
20200330222816 58 270 6.0 10.0 0.00 0.00 0.00 41 1021.5
20200330222149 57 270 8.0 11.0 0.00 0.00 0.00 40 1022.5
20200330221652 58 270 7.0 11.0 0.00 0.00 0.00 40 1022.5
20200330221149 58 270 4.0 10.0 0.00 0.00 0.00 41 1022.5
20200330220650 58 270 8.0 12.0 0.00 0.00 0.00 40 1021.5
20200330220151 58 270 5.0 12.0 0.00 0.00 0.00 40 1021.5
20200330215650 58 270 4.0 13.0 0.00 0.00 0.00 40 1021.5
20200330215150 58 270 4.0 13.0 0.00 0.00 0.00 40 1021.5
20200330214651 58 270 6.0 10.0 0.00 0.00 0.00 40 1021.5
20200330214151 58 270 5.0 10.0 0.00 0.00 0.00 39 1021.5
20200330213650 58 270 5.0 12.0 0.00 0.00 0.00 39 1021.5
20200330213119 58 270 9.0 13.0 0.00 0.00 0.00 39 1021.5
20200330212620 58 270 5.0 12.0 0.00 0.00 0.00 38 1021.5
20200330212119 59 270 6.0 12.0 0.00 0.00 0.00 39 1021.5
20200330211621 59 270 7.0 11.0 0.00 0.00 0.00 38 1021.5
20200330211123 59 270 6.0 11.0 0.00 0.00 0.00 38 1021.5
20200330210622 60 270 6.0 10.0 0.00 0.00 0.00 38 1021.5
20200330210116 60 270 6.0 12.0 0.00 0.00 0.00 38 1021.5
20200330205601 60 270 4.0 12.0 0.00 0.00 0.00 38 1021.5
20200330205059 60 270 7.0 12.0 0.00 0.00 0.00 38 1021.5
20200330204559 60 270 6.0 14.0 0.00 0.00 0.00 38 1021.5
20200330204103 60 270 7.0 14.0 0.00 0.00 0.00 38 1021.5
20200330203603 60 270 5.0 12.0 0.00 0.00 0.00 38 1021.5
20200330203050 60 270 7.0 10.0 0.00 0.00 0.00 38 1021.5
20200330202550 60 270 3.0 8.0 0.00 0.00 0.00 38 1020.5
20200330202021 60 270 6.0 10.0 0.00 0.00 0.00 38 1020.5
20200330201525 60 270 6.0 10.0 0.00 0.00 0.00 38 1020.5
20200330200934 60 270 5.0 10.0 0.00 0.00 0.00 38 1021.5
20200330200436 60 270 6.0 10.0 0.00 0.00 0.00 38 1021.5
20200330195931 60 270 6.0 9.0 0.00 0.00 0.00 38 1021.5
20200330195429 60 270 5.0 9.0 0.00 0.00 0.00 38 1020.5
20200330194930 60 270 4.0 11.0 0.00 0.00 0.00 39 1020.5
20200330194429 60 270 7.0 15.0 0.00 0.00 0.00 39 1020.5
20200330193930 60 270 4.0 15.0 0.00 0.00 0.00 39 1021.5
20200330193430 60 270 5.0 9.0 0.00 0.00 0.00 39 1021.5
20200330192932 59 270 6.0 9.0 0.00 0.00 0.00 38 1021.5
20200330192431 59 270 4.0 10.0 0.00 0.00 0.00 39 1021.5
20200330191929 59 270 4.0 13.0 0.00 0.00 0.00 39 1021.5
20200330191431 59 270 5.0 13.0 0.00 0.00 0.00 39 1021.5
20200330190929 59 270 5.0 10.0 0.00 0.00 0.00 40 1022.5
20200330190430 58 270 6.0 13.0 0.00 0.00 0.00 40 1022.5
20200330185931 58 270 5.0 13.0 0.00 0.00 0.00 41 1022.5
20200330185428 58 270 6.0 10.0 0.00 0.00 0.00 41 1022.5
20200330184922 59 270 6.0 12.0 0.00 0.00 0.00 41 1022.5
20200330184421 58 270 7.0 17.0 0.00 0.00 0.00 41 1022.5
20200330183921 59 270 9.0 17.0 0.00 0.00 0.00 41 1021.5
20200330183421 58 270 4.0 9.0 0.00 0.00 0.00 41 1021.5
20200330182921 58 270 5.0 9.0 0.00 0.00 0.00 42 1021.5
20200330182420 58 270 5.0 11.0 0.00 0.00 0.00 41 1021.5
20200330181919 57 270 7.0 11.0 0.00 0.00 0.00 41 1021.5
20200330181421 58 270 8.0 11.0 0.00 0.00 0.00 41 1021.5
20200330180920 58 270 5.0 11.0 0.00 0.00 0.00 41 1021.5
20200330180420 57 270 6.0 11.0 0.00 0.00 0.00 41 1021.5
20200330175920 58 270 9.0 11.0 0.00 0.00 0.00 41 1021.5
20200330175419 57 270 4.0 15.0 0.00 0.00 0.00 41 1022.5
20200330174920 57 270 9.0 15.0 0.00 0.00 0.00 40 1022.5
20200330174418 58 270 6.0 10.0 0.00 0.00 0.00 41 1022.5
20200330173920 57 270 7.0 11.0 0.00 0.00 0.00 42 1022.5
20200330173421 57 270 4.0 11.0 0.00 0.00 0.00 42 1022.5
20200330173149 57 270 5.0 11.0 0.00 0.00 0.00 41 1022.5
20200330172416 57 270 9.0 12.0 0.00 0.00 0.00 42 1022.5
20200330171850 56 270 4.0 13.0 0.00 0.00 0.00 41 1022.5
20200330171350 57 270 4.0 13.0 0.00 0.00 0.00 42 1022.5
20200330170849 56 270 7.0 11.0 0.00 0.00 0.00 42 1023.6
20200330170350 57 270 10.0 11.0 0.00 0.00 0.00 42 1023.6
20200330165849 56 270 2.0 10.0 0.00 0.00 0.00 43 1023.6
20200330165349 56 270 7.0 10.0 0.00 0.00 0.00 44 1022.5
20200330164850 56 270 4.0 11.0 0.00 0.00 0.00 43 1022.5
20200330164353 56 270 5.0 11.0 0.00 0.00 0.00 43 1022.5
20200330163842 56 270 5.0 10.0 0.00 0.00 0.00 43 1022.5
20200330163329 55 270 5.0 17.0 0.00 0.00 0.00 43 1022.5
20200330162829 55 270 6.0 17.0 0.00 0.00 0.00 44 1022.5
20200330162330 55 270 5.0 10.0 0.00 0.00 0.00 43 1023.6
20200330161830 55 270 6.0 10.0 0.00 0.00 0.00 44 1023.6
20200330161333 54 270 6.0 11.0 0.00 0.00 0.00 43 1023.6
20200330160830 54 270 5.0 11.0 0.00 0.00 0.00 44 1022.5
20200330160330 54 270 5.0 10.0 0.00 0.00 0.00 45 1022.5
20200330155830 54 270 6.0 9.0 0.00 0.00 0.00 44 1022.5
20200330155329 54 270 6.0 9.0 0.00 0.00 0.00 45 1022.5
20200330154830 54 270 7.0 9.0 0.00 0.00 0.00 45 1022.5
20200330154327 53 270 7.0 9.0 0.00 0.00 0.00 45 1022.5
20200330153820 53 270 6.0 10.0 0.00 0.00 0.00 46 1022.5
20200330153319 53 270 6.0 10.0 0.00 0.00 0.00 46 1022.5
20200330152820 53 270 5.0 11.0 0.00 0.00 0.00 45 1022.5
20200330152320 52 270 5.0 11.0 0.00 0.00 0.00 46 1022.5
20200330151820 52 270 7.0 11.0 0.00 0.00 0.00 46 1022.5
20200330151323 52 270 4.0 10.0 0.00 0.00 0.00 46 1022.5
20200330150821 52 270 6.0 10.0 0.00 0.00 0.00 46 1022.5
20200330150321 52 270 4.0 10.0 0.00 0.00 0.00 47 1022.5
20200330145822 51 270 5.0 11.0 0.00 0.00 0.00 46 1022.5
20200330145319 51 270 4.0 11.0 0.00 0.00 0.00 47 1022.5
20200330144809 51 270 4.0 10.0 0.00 0.00 0.00 47 1022.5
20200330144309 51 270 6.0 15.0 0.00 0.00 0.00 47 1022.5
20200330143810 50 270 8.0 15.0 0.00 0.00 0.00 47 1022.5
20200330143310 50 270 10.0 11.0 0.00 0.00 0.00 46 1022.5
20200330142810 50 270 7.0 11.0 0.00 0.00 0.00 46 1022.5
20200330142309 50 270 6.0 9.0 0.00 0.00 0.00 47 1022.5
20200330141810 50 270 4.0 9.0 0.00 0.00 0.00 47 1022.5
20200330141307 50 270 6.0 8.0 0.00 0.00 0.00 47 1022.5
20200330140801 50 270 6.0 13.0 0.00 0.00 0.00 47 1022.5
20200330140239 50 270 8.0 13.0 0.00 0.00 0.00 47 1022.5
20200330135728 50 270 4.0 10.0 0.00 0.00 0.00 48 1022.5
20200330135232 50 270 4.0 9.0 0.00 0.00 0.00 48 1022.5
20200330134600 49 270 5.0 9.0 0.00 0.00 0.00 48 1022.5
20200330134053 49 270 7.0 9.0 0.00 0.00 0.00 48 1022.5
20200330133553 49 270 6.0 13.0 0.00 0.00 0.00 48 1022.5
20200330133051 49 270 7.0 13.0 0.00 0.00 0.00 48 1022.5
20200330132555 49 270 4.0 8.0 0.00 0.00 0.00 48 1022.5
20200330132031 48 270 7.0 8.0 0.00 0.00 0.00 48 1022.5
20200330131529 48 270 6.0 10.0 0.00 0.00 0.00 48 1022.5
20200330131033 48 270 5.0 10.0 0.00 0.00 0.00 48 1021.5
20200330130529 48 270 5.0 8.0 0.00 0.00 0.00 48 1021.5
20200330130029 48 270 4.0 8.0 0.00 0.00 0.00 48 1021.5
20200330125532 48 270 3.0 9.0 0.00 0.00 0.00 48 1021.5
20200330125033 48 270 4.0 9.0 0.00 0.00 0.00 48 1021.5
20200330124530 48 270 5.0 9.0 0.00 0.00 0.00 48 1021.5
20200330124029 48 270 7.0 6.0 0.00 0.00 0.00 48 1020.5
20200330123529 47 270 4.0 9.0 0.00 0.00 0.00 48 1020.5
20200330123027 47 270 3.0 9.0 0.00 0.00 0.00 48 1020.5
20200330122527 47 270 4.0 7.0 0.00 0.00 0.00 48 1021.5
20200330122028 47 270 3.0 7.0 0.00 0.00 0.00 48 1021.5
20200330121450 47 270 4.0 9.0 0.00 0.00 0.00 47 1021.5
20200330120939 47 270 6.0 9.0 0.00 0.00 0.00 47 1021.5
20200330120441 47 270 4.0 14.0 0.00 0.00 0.00 47 1021.5
20200330115938 47 270 6.0 14.0 0.00 0.00 0.00 47 1021.5
20200330115441 47 270 4.0 7.0 0.00 0.00 0.00 47 1021.5
20200330114937 47 270 2.0 7.0 0.00 0.00 0.00 47 1021.5
20200330114420 47 270 4.0 7.0 0.00 0.00 0.00 47 1021.5
20200330113920 47 270 5.0 6.0 0.00 0.00 0.00 47 1021.5
20200330113419 47 270 3.0 6.0 0.00 0.00 0.00 46 1021.5
20200330112919 47 270 4.0 6.0 0.00 0.00 0.00 46 1021.5
20200330112419 47 270 4.0 6.0 0.00 0.00 0.00 46 1020.5
20200330111920 48 270 4.0 6.0 0.00 0.00 0.00 46 1020.5
20200330111340 48 270 4.0 10.0 0.00 0.00 0.00 45 1020.5
20200330110839 48 270 6.0 10.0 0.00 0.00 0.00 45 1020.5
20200330110343 48 270 5.0 8.0 0.00 0.00 0.00 45 1020.5
20200330105813 48 270 3.0 6.0 0.00 0.00 0.00 45 1020.5
20200330105312 48 270 4.0 7.0 0.00 0.00 0.00 44 1020.5
20200330104810 48 270 4.0 8.0 0.00 0.00 0.00 44 1020.5
20200330104310 49 270 6.0 13.0 0.00 0.00 0.00 44 1020.5
20200330103809 49 270 7.0 13.0 0.00 0.00 0.00 44 1020.5
20200330103310 49 270 5.0 10.0 0.00 0.00 0.00 44 1020.5
20200330102809 49 270 3.0 9.0 0.00 0.00 0.00 44 1020.5
20200330102311 49 270 5.0 13.0 0.00 0.00 0.00 44 1020.5
20200330101809 49 270 4.0 13.0 0.00 0.00 0.00 44 1020.5
20200330101252 49 270 6.0 10.0 0.00 0.00 0.00 45 1020.5
20200330100749 50 270 6.0 12.0 0.00 0.00 0.00 45 1019.5
20200330100250 50 270 4.0 12.0 0.00 0.00 0.00 45 1019.5
20200330095750 50 270 5.0 10.0 0.00 0.00 0.00 45 1019.5
20200330095253 50 270 6.0 10.0 0.00 0.00 0.00 45 1019.5
20200330094751 51 270 7.0 10.0 0.00 0.00 0.00 45 1019.5
20200330094252 51 270 5.0 11.0 0.00 0.00 0.00 45 1019.5
20200330093716 51 270 6.0 12.0 0.00 0.00 0.00 44 1018.4
20200330093150 51 270 7.0 12.0 0.00 0.00 0.00 44 1018.4
20200330092649 51 270 5.0 9.0 0.00 0.00 0.00 44 1018.4
20200330092151 51 270 4.0 10.0 0.00 0.00 0.00 44 1019.5
20200330091648 51 270 4.0 12.0 0.00 0.00 0.00 43 1019.5
20200330091132 51 270 5.0 10.0 0.00 0.00 0.00 43 1019.5
20200330090628 52 270 5.0 9.0 0.00 0.00 0.00 43 1019.5
20200330090126 52 270 3.0 11.0 0.00 0.00 0.00 42 1019.5
20200330085627 52 270 7.0 11.0 0.00 0.00 0.00 42 1019.5
20200330085123 52 270 4.0 8.0 0.00 0.00 0.00 42 1019.5
20200330084609 52 270 5.0 9.0 0.00 0.00 0.00 42 1019.5
20200330084109 52 270 4.0 13.0 0.00 0.00 0.00 41 1019.5
20200330083608 52 270 4.0 13.0 0.00 0.00 0.00 41 1019.5
20200330083108 52 270 6.0 12.0 0.00 0.00 0.00 40 1019.5
20200330082609 53 270 1.0 7.0 0.00 0.00 0.00 40 1019.5
20200330082112 53 270 6.0 13.0 0.00 0.00 0.00 40 1019.5
20200330081609 53 270 5.0 13.0 0.00 0.00 0.00 39 1019.5
20200330081040 53 270 4.0 8.0 0.00 0.00 0.00 39 1019.5
20200330080510 53 270 5.0 10.0 0.00 0.00 0.00 39 1018.4
20200330080008 53 270 5.0 10.0 0.00 0.00 0.00 39 1018.4
20200330075410 53 270 3.0 8.0 0.00 0.00 0.00 39 1018.4
20200330074909 54 270 5.0 13.0 0.00 0.00 0.00 38 1018.4
20200330074409 54 270 6.0 13.0 0.00 0.00 0.00 38 1018.4
20200330073910 54 270 6.0 12.0 0.00 0.00 0.00 38 1018.4
20200330073410 54 270 6.0 12.0 0.00 0.00 0.00 37 1018.4
20200330072909 54 270 4.0 8.0 0.00 0.00 0.00 37 1018.4
20200330072410 54 270 4.0 7.0 0.00 0.00 0.00 37 1018.4
20200330071910 55 270 4.0 11.0 0.00 0.00 0.00 37 1018.4
20200330071409 55 270 4.0 11.0 0.00 0.00 0.00 37 1018.4
20200330070909 55 270 5.0 11.0 0.00 0.00 0.00 37 1018.4
20200330070409 55 270 3.0 11.0 0.00 0.00 0.00 37 1018.4
20200330065910 55 270 3.0 11.0 0.00 0.00 0.00 37 1018.4
20200330065411 55 270 4.0 11.0 0.00 0.00 0.00 37 1018.4
20200330064907 55 270 3.0 6.0 0.00 0.00 0.00 36 1018.4
20200330064328 55 270 4.0 9.0 0.00 0.00 0.00 36 1018.4
20200330063827 55 270 4.0 9.0 0.00 0.00 0.00 36 1018.4
20200330063326 56 270 4.0 7.0 0.00 0.00 0.00 36 1018.4
20200330062826 56 270 3.0 7.0 0.00 0.00 0.00 37 1018.4
20200330062326 56 270 3.0 9.0 0.00 0.00 0.00 37 1018.4
20200330061752 56 270 4.0 9.0 0.00 0.00 0.00 36 1018.4
20200330061240 56 270 4.0 11.0 0.00 0.00 0.00 36 1018.4
20200330060739 56 270 6.0 11.0 0.00 0.00 0.00 36 1018.4
20200330060235 56 270 3.0 9.0 0.00 0.00 0.00 36 1018.4
20200330055735 56 270 4.0 10.0 0.00 0.00 0.00 37 1018.4
20200330055209 56 270 6.0 10.0 0.00 0.00 0.00 36 1019.5
20200330054712 57 270 4.0 9.0 0.00 0.00 0.00 37 1019.5
20200330054200 57 270 3.0 8.0 0.00 0.00 0.00 36 1019.5
20200330053700 57 270 4.0 11.0 0.00 0.00 0.00 37 1018.4
20200330053159 57 270 3.0 11.0 0.00 0.00 0.00 36 1018.4
20200330052658 57 270 3.0 9.0 0.00 0.00 0.00 37 1018.4
20200330052159 57 270 4.0 13.0 0.00 0.00 0.00 36 1018.4
20200330051657 57 270 2.0 13.0 0.00 0.00 0.00 36 1018.4
20200330051130 57 270 3.0 11.0 0.00 0.00 0.00 36 1018.4
20200330050630 57 270 3.0 11.0 0.00 0.00 0.00 36 1018.4
20200330050130 57 270 3.0 10.0 0.00 0.00 0.00 36 1018.4
20200330045629 57 270 3.0 9.0 0.00 0.00 0.00 36 1018.4
20200330045129 58 270 2.0 10.0 0.00 0.00 0.00 36 1018.4
20200330044629 58 270 4.0 10.0 0.00 0.00 0.00 36 1018.4
20200330044127 58 270 7.0 9.0 0.00 0.00 0.00 36 1018.4
20200330043627 58 270 4.0 10.0 0.00 0.00 0.00 36 1018.4
20200330043059 58 270 5.0 10.0 0.00 0.00 0.00 36 1018.4
20200330042600 58 270 2.0 8.0 0.00 0.00 0.00 36 1018.4
20200330042102 58 270 3.0 8.0 0.00 0.00 0.00 36 1018.4
20200330041530 58 270 3.0 8.0 0.00 0.00 0.00 36 1018.4
20200330041030 58 270 6.0 8.0 0.00 0.00 0.00 36 1018.4
20200330040532 58 270 3.0 7.0 0.00 0.00 0.00 36 1018.4
20200330040002 58 270 2.0 12.0 0.00 0.00 0.33 36 1018.4
20200330035500 58 270 4.0 12.0 0.00 0.00 0.33 36 1018.4
20200330035000 59 270 4.0 0.0 0.00 0.00 0.33 36 1018.4
20200330034237 59 270 5.0 12.0 0.00 0.33 0.33 36 1018.4
20200330033718 59 270 4.0 13.0 0.00 0.33 0.33 36 1018.4
20200330033218 59 270 4.0 13.0 0.00 0.33 0.33 36 1018.4
20200330032720 59 270 6.0 9.0 0.00 0.33 0.33 36 1018.4
20200330032220 59 270 4.0 9.0 0.00 0.33 0.33 36 1018.4
20200330031722 59 270 3.0 10.0 0.00 0.33 0.33 36 1018.4
20200330031222 59 270 5.0 11.0 0.00 0.33 0.33 36 1018.4
20200330030700 59 270 6.0 13.0 0.00 0.33 0.33 37 1018.4
20200330030159 59 270 4.0 12.0 0.00 0.33 0.33 37 1018.4
20200330025655 59 270 3.0 10.0 0.00 0.33 0.33 37 1018.4
20200330025155 59 270 3.0 13.0 0.00 0.33 0.33 37 1018.4
20200330024655 59 270 3.0 15.0 0.00 0.33 0.33 36 1018.4
20200330024100 59 270 4.0 13.0 0.00 0.33 0.33 37 1018.4
20200330023600 59 270 5.0 13.0 0.00 0.33 0.33 37 1018.4
20200330023100 59 270 2.0 12.0 0.00 0.33 0.33 37 1018.4
20200330022558 59 270 7.0 14.0 0.00 0.33 0.33 38 1018.4
20200330022032 59 270 3.0 14.0 0.00 0.33 0.33 38 1018.4
20200330021532 60 270 4.0 12.0 0.00 0.33 0.33 38 1018.4
20200330021029 60 270 6.0 12.0 0.00 0.33 0.33 37 1017.4
20200330020530 60 270 5.0 10.0 0.00 0.33 0.33 38 1017.4
20200330020031 60 270 6.0 10.0 0.00 0.33 0.33 38 1017.4
20200330015532 60 270 5.0 13.0 0.00 0.33 0.33 38 1017.4
20200330015029 60 270 7.0 13.0 0.00 0.33 0.33 38 1017.4
20200330014538 60 270 7.0 13.0 0.00 0.33 0.33 38 1017.4
20200330014030 60 270 8.0 13.0 0.00 0.33 0.33 38 1017.4
20200330013529 60 270 6.0 13.0 0.00 0.33 0.33 38 1017.4
20200330013032 60 270 5.0 13.0 0.00 0.33 0.33 39 1017.4
20200330012532 60 270 4.0 10.0 0.00 0.33 0.33 39 1017.4
20200330012030 60 270 5.0 10.0 0.00 0.33 0.33 39 1017.4
20200330011530 60 270 4.0 12.0 0.00 0.33 0.33 39 1017.4
20200330011031 61 270 6.0 13.0 0.00 0.33 0.33 39 1016.4
20200330010530 61 270 4.0 15.0 0.00 0.33 0.33 39 1016.4
20200330010029 61 270 3.0 15.0 0.00 0.33 0.33 39 1016.4
20200330005530 61 270 4.0 19.0 0.00 0.33 0.33 39 1017.4
20200330005027 60 270 5.0 19.0 0.00 0.33 0.33 40 1017.4
20200330004526 61 270 4.0 7.0 0.00 0.33 0.33 39 1017.4
20200330003926 61 270 5.0 7.0 0.00 0.33 0.33 39 1017.4
20200330003424 61 270 2.0 9.0 0.00 0.33 0.33 39 1017.4
20200330002922 61 270 5.0 9.0 0.00 0.33 0.33 39 1017.4
20200330002422 62 270 4.0 13.0 0.00 0.33 0.33 38 1016.4
20200330001850 62 270 4.0 13.0 0.00 0.33 0.33 38 1016.4
20200330001347 62 270 5.0 11.0 0.00 0.33 0.33 38 1016.4